Overview Statistics Trail Chart Weather Telemetry Raw packets
 

This is the latest recevied weather packets stored in our database for station/object KB4MOX. If no packets are shown the sender has not sent any weather packets the latest 10 day(s).

<< 109 110 111 112 113 114 >>
Time Temp. Humidity Pressure Rain* Wind** Luminosity Snow
1787791438 26.67° C 74% 1015.4 hPa 0 mm - 0 W/m² -
1787791133 26.67° C 74% 1015.3 hPa 0 mm - 0 W/m² -
1787790829 27.22° C 74% 1015.3 hPa 0 mm - 0 W/m² -
1787790529 27.22° C 74% 1015.4 hPa 0 mm - 0 W/m² -
1787790224 27.22° C 74% 1015.2 hPa 0 mm - 0 W/m² -
1787789920 27.78° C 74% 1015.2 hPa 0 mm - 0 W/m² -
1787789619 27.78° C 73% 1015.1 hPa 0 mm - 0 W/m² -
1787789318 27.78° C 73% 1015.1 hPa 0 mm - 1 W/m² -
1787789013 28.33° C 72% 1015 hPa 0 mm - 2 W/m² -
1787788711 28.33° C 71% 1014.8 hPa 0 mm - 3 W/m² -
1787788406 28.33° C 70% 1014.7 hPa 0 mm - 4 W/m² -
1787788101 28.89° C 70% 1014.5 hPa 0 mm - 5 W/m² -
1787787796 28.89° C 69% 1014.7 hPa 0 mm - 6 W/m² -
1787787495 28.89° C 68% 1015 hPa 0 mm - 8 W/m² -
1787787194 29.44° C 68% 1014.6 hPa 0 mm - 9 W/m² -
1787786894 29.44° C 67% 1014.7 hPa 0 mm - 11 W/m² -
1787786589 29.44° C 67% 1014.8 hPa 0 mm - 12 W/m² -
1787786284 30° C 66% 1014.6 hPa 0 mm - 14 W/m² -
1787785980 30° C 65% 1014.7 hPa 0 mm - 15 W/m² -
1787785676 30° C 64% 1014.7 hPa 0 mm - 18 W/m² -
1787785375 30.56° C 63% 1014.9 hPa 0 mm - 26 W/m² -
1787785074 30.56° C 63% 1014.8 hPa 0 mm - 35 W/m² -
1787784770 30.56° C 63% 1014.9 hPa 0 mm - 35 W/m² -
1787784469 30.56° C 62% 1014.8 hPa 0 mm - 40 W/m² -
1787784164 30.56° C 62% 1014.9 hPa 0 mm - 44 W/m² -

* Rain latest hour (hover to see other rain measurements)
** Current wind speed in m/s (hover to see current wind gust speed)